Weather History for Fairbanks, AK

Change the Weather History Date:

Wednesday, October 5, 2011

  Actual Average Record
Temperature  
Mean Temperature 36 °F 33 °F  
Max Temperature 49 °F 42 °F 62 °F (1923)
Min Temperature 23 °F 25 °F 8 °F (1970)
Degree Days  
Heating Degree Days 29 32  
Month to date heating degree days 127 151  
Since 1 July heating degree days 942 1145  
Cooling Degree Days 0 0  
Month to date cooling degree days 0 0  
Year to date cooling degree days 39 61  
Moisture  
Dew Point 27 °F    
Average Humidity 75    
Maximum Humidity 92    
Minimum Humidity 48    
Precipitation  
Precipitation 0.00 in 0.03 in 0.56 in (1983)
Month to date precipitation T 0.14  
Year to date precipitation 7.81 8.81  
Snow  
Snow 0.00 in 0.20 in 3.30 in (1983)
Month to date snowfall T 1.0  
Since 1 July snowfall T 2.8  
Since 1 September snowfall T 2.8  
Snow Depth 0.00 in    
Sea Level Pressure  
Sea Level Pressure 29.51 in    
Wind  
Wind Speed 2 mph (NE)    
Max Wind Speed 7 mph    
Max Gust Speed -    
Visibility 10 miles    
Events      
T = Trace of Precipitation, MM = Missing Value Source: NWS Daily Summary

Daily Weather History Graph

Daily Weather History Graph

Search for Another Location

Airport:

Trip Planner

Search our weather history database for the weather conditions in past years. The results will help you decide how hot, cold, wet, or windy it might be!

Date:

Astronomy

Oct. 05, 2011 Rise Set
Actual Time 8:12 AM AKDT 7:05 PM AKDT
Civil Twilight 7:24 AM AKDT 7:54 PM AKDT
Nautical Twilight 6:26 AM AKDT 8:50 PM AKDT
Astronomical Twilight 5:25 AM AKDT 9:51 PM AKDT
Moon 5:44 PM AKDT (10/5) No Moon Set
Length of Visible Light 12h 29m
Length of Day
10h 52m
Waxing Gibbous, 67% of the Moon is Illuminated
Oct 5
Waxing Gibbous
Oct 11
Full
Oct 19
Last Quarter
Oct 26
New
Nov 2
First Quarter

Hourly Weather History & Observations

Time (AKDT) Temp. Windchill Dew Point Humidity Pressure Visibility Wind Dir Wind Speed Gust Speed Precip Events Conditions
12:53 AM 28.0 °F - 24.1 °F 85% 29.61 in 10.0 mi Calm Calm - N/A   Scattered Clouds
1:53 AM 26.1 °F - 23.0 °F 88% 29.61 in 10.0 mi Calm Calm - N/A   Scattered Clouds
2:53 AM 25.0 °F - 21.9 °F 88% 29.61 in 10.0 mi Calm Calm - N/A   Scattered Clouds
3:53 AM 25.0 °F - 23.0 °F 92% 29.60 in 10.0 mi Calm Calm - N/A   Scattered Clouds
4:53 AM 25.0 °F - 21.9 °F 88% 29.60 in 10.0 mi Calm Calm - N/A   Scattered Clouds
5:53 AM 24.1 °F 19.7 °F 21.9 °F 91% 29.59 in 10.0 mi NNE 3.5 mph - N/A   Scattered Clouds
6:53 AM 25.0 °F - 21.9 °F 88% 29.57 in 10.0 mi Calm Calm - N/A   Scattered Clouds
7:53 AM 24.1 °F - 21.0 °F 88% 29.57 in 10.0 mi Calm Calm - N/A   Scattered Clouds
8:53 AM 24.1 °F - 21.9 °F 91% 29.57 in 10.0 mi Calm Calm - N/A   Scattered Clouds
9:53 AM 28.0 °F - 25.0 °F 88% 29.56 in 10.0 mi Calm Calm - N/A   Scattered Clouds
10:53 AM 33.1 °F 30.0 °F 30.0 °F 89% 29.54 in 10.0 mi ENE 3.5 mph - N/A   Scattered Clouds
11:53 AM 37.9 °F 34.4 °F 30.9 °F 76% 29.53 in 10.0 mi NNE 4.6 mph - N/A   Scattered Clouds
12:53 PM 44.1 °F 40.1 °F 32.0 °F 63% 29.50 in 10.0 mi East 6.9 mph - N/A   Scattered Clouds
1:53 PM 46.0 °F 42.5 °F 30.9 °F 56% 29.49 in 10.0 mi East 6.9 mph - N/A   Scattered Clouds
2:53 PM 48.0 °F - 28.9 °F 48% 29.47 in 10.0 mi ESE 5.8 mph - N/A   Mostly Cloudy
3:53 PM 46.9 °F - 28.9 °F 50% 29.46 in 10.0 mi East 4.6 mph - N/A   Mostly Cloudy
4:53 PM 46.9 °F - 30.0 °F 52% 29.44 in 10.0 mi NE 3.5 mph - N/A   Mostly Cloudy
5:53 PM 45.0 °F - 28.9 °F 53% 29.43 in 10.0 mi Calm Calm - N/A   Mostly Cloudy
6:53 PM 42.1 °F - 30.0 °F 62% 29.43 in 10.0 mi Calm Calm - N/A   Mostly Cloudy
7:53 PM 39.0 °F - 30.9 °F 73% 29.42 in 10.0 mi Calm Calm - N/A   Mostly Cloudy
8:53 PM 39.0 °F 35.7 °F 30.9 °F 73% 29.41 in 10.0 mi NE 4.6 mph - N/A   Mostly Cloudy
9:53 PM 42.1 °F 38.4 °F 28.9 °F 60% 29.41 in 10.0 mi NNE 5.8 mph - N/A   Mostly Cloudy
10:53 PM 37.0 °F 34.5 °F 28.9 °F 73% 29.40 in 10.0 mi North 3.5 mph - N/A   Mostly Cloudy
11:53 PM 36.0 °F 33.3 °F 28.9 °F 76% 29.39 in 10.0 mi NNE 3.5 mph - N/A   Mostly Cloudy